TimePDT,TemperatureF,Dew PointF,Humidity,Sea Level PressureIn,VisibilityMPH,Wind Direction,Wind SpeedMPH,Gust SpeedMPH,PrecipitationIn,Events,Conditions,WindDirDegrees,DateUTC
12:53 AM,43.0,36.0,76,29.90,10.0,South,8.1,-,N/A,,Clear,180,2013-06-23 07:53:00
1:53 AM,43.0,35.1,74,29.89,10.0,Calm,Calm,-,N/A,,Clear,0,2013-06-23 08:53:00
2:53 AM,46.0,37.0,71,29.86,10.0,Calm,Calm,-,N/A,,Clear,0,2013-06-23 09:53:00
3:53 AM,52.0,37.9,59,29.83,10.0,NNE,3.5,-,N/A,,Overcast,20,2013-06-23 10:53:00
4:53 AM,54.0,37.0,53,29.82,10.0,NNE,8.1,-,N/A,,Overcast,30,2013-06-23 11:53:00
5:53 AM,55.9,37.9,51,29.80,10.0,North,5.8,-,0.00,Rain,Light Rain,10,2013-06-23 12:53:00
6:53 AM,55.9,42.1,60,29.80,10.0,SW,3.5,-,0.00,,Overcast,230,2013-06-23 13:53:00
7:53 AM,64.0,37.0,37,29.77,10.0,NNE,8.1,-,N/A,,Mostly Cloudy,30,2013-06-23 14:53:00
8:53 AM,68.0,35.1,30,29.77,10.0,ENE,9.2,-,N/A,,Partly Cloudy,60,2013-06-23 15:53:00
9:53 AM,69.1,37.0,31,29.76,10.0,East,6.9,-,N/A,,Partly Cloudy,80,2013-06-23 16:53:00
10:53 AM,72.0,37.0,28,29.74,10.0,NE,11.5,-,N/A,,Scattered Clouds,50,2013-06-23 17:53:00
11:53 AM,73.0,37.0,27,29.73,10.0,Variable,4.6,16.1,N/A,,Mostly Cloudy,0,2013-06-23 18:53:00
12:53 PM,73.0,36.0,26,29.72,10.0,ESE,8.1,-,0.00,,Overcast,110,2013-06-23 19:53:00
1:53 PM,75.9,36.0,23,29.68,10.0,NNE,8.1,16.1,N/A,,Mostly Cloudy,30,2013-06-23 20:53:00
2:53 PM,75.9,35.1,23,29.66,10.0,East,6.9,-,N/A,,Mostly Cloudy,100,2013-06-23 21:53:00
3:53 PM,72.0,43.0,35,29.65,10.0,South,11.5,-,N/A,,Overcast,190,2013-06-23 22:53:00
4:53 PM,71.1,43.0,36,29.65,10.0,WSW,16.1,-,N/A,,Mostly Cloudy,240,2013-06-23 23:53:00
5:53 PM,64.0,48.0,56,29.69,10.0,WSW,20.7,27.6,N/A,,Overcast,240,2013-06-24 00:53:00
6:53 PM,61.0,48.0,62,29.71,10.0,WSW,12.7,-,0.00,Rain,Light Rain,250,2013-06-24 01:53:00
7:53 PM,57.9,51.1,78,29.70,10.0,West,3.5,-,0.00,Rain,Light Rain,280,2013-06-24 02:53:00
8:53 PM,55.9,51.1,84,29.68,10.0,Calm,Calm,-,0.00,,Mostly Cloudy,0,2013-06-24 03:53:00
9:53 PM,53.1,50.0,89,29.69,10.0,South,4.6,-,N/A,,Scattered Clouds,190,2013-06-24 04:53:00
10:53 PM,55.0,51.1,86,29.69,10.0,West,6.9,-,N/A,,Overcast,270,2013-06-24 05:53:00
11:53 PM,54.0,52.0,93,29.67,10.0,NNE,3.5,-,0.00,Rain,Light Rain,30,2013-06-24 06:53:00